Date_and_time,latitude,longitude,wind_speed,RelWindDirFrom,WindDirFrom,air_pressure,air_temperature,relative_humidity,Temp,platform_speed_wrt_ground,air_pressure_at_mean_sea_level,platform_orientation
2018-09-29 23:50,51.0082416666667,-96.65337,15.4,19.6,224,990.72,7.9,43,11.06,11.0,1017.87,169.6
2018-09-30 00:00,50.977825,-96.6589666666667,16.9,19.7,228,990.68,8.1,42,11.08,11.0,1017.82,360.0
2018-09-30 00:10,50.9491533333333,-96.6763183333333,17.8,21.9,234,990.56,8.2,41,10.78,11.0,1017.68,360.0
2018-09-30 00:20,50.9214583333333,-96.6961,20.8,25.9,232,990.29,8.2,42,10.51,10.9,1017.39,360.0
2018-09-30 00:30,50.8937516666667,-96.7155233333333,19.3,24.3,234,990.39,8.2,42,10.40,10.9,1017.51,360.0
2018-09-30 00:40,50.8658383333333,-96.7346616666667,19.5,23.9,231,990.43,8.2,42,10.75,10.9,1017.55,360.0
2018-09-30 00:50,50.8378666666667,-96.7539833333333,18.6,21.9,229,990.52,8.3,42,10.90,11.0,1017.65,360.0
2018-09-30 01:00,50.8099316666667,-96.773335,19.6,22.9,224,990.59,8.3,42,11.00,11.0,1017.72,192.2
2018-09-30 01:10,50.7821016666667,-96.7929716666667,19.2,21.5,221,990.68,8.3,41,11.11,11.0,1017.82,192.2
2018-09-30 01:20,50.7542583333333,-96.8125233333333,19.6,21.3,218,990.67,8.2,41,11.11,11.0,1017.81,192.2
2018-09-30 01:30,50.7260416666667,-96.8304266666667,19.6,21.6,218,990.71,8.3,41,11.10,10.9,1017.85,192.2
2018-09-30 01:40,50.6978083333333,-96.8485433333333,19.5,20.9,218,990.72,8.3,41,11.06,11.0,1017.84,192.2
2018-09-30 01:50,50.669175,-96.8630516666667,18.7,20.5,210,990.69,8.3,42,10.89,10.8,1017.81,192.2
2018-09-30 02:00,50.6419333333333,-96.87926,17.4,19.0,211,990.68,8.3,42,10.72,10.5,1017.79,197.8
2018-09-30 02:10,50.6258166666667,-96.9149733333333,14.9,16.9,230,990.72,8.1,46,10.41,10.0,1017.84,197.8
2018-09-30 02:20,50.62628,-96.95995,14.0,15.5,259,990.96,7.6,50,10.00,10.3,1018.12,197.8
2018-09-30 02:30,50.62947,-96.9811833333333,7.4,10.0,266,991.26,6.9,51,9.47,5.0,1018.45,197.8
2018-09-30 02:40,50.6304233333333,-96.980755,1.6,2.9,235,991.25,6.3,48,9.40,0.4,1018.48,197.8
2018-09-30 02:50,50.630435,-96.980775,2.9,3.6,227,991.28,6.1,48,9.36,0.0,1018.51,197.8
2018-09-30 03:00,50.6304383333333,-96.9807683333333,3.3,3.9,228,991.30,5.9,49,9.36,0.0,1018.54,210.5
2018-09-30 03:10,50.6304416666667,-96.98077,3.2,4.1,221,991.30,5.7,51,9.32,0.0,1018.55,210.5
2018-09-30 03:20,50.63045,-96.980785,4.0,5.2,218,991.32,5.7,52,9.32,0.0,1018.57,210.5
2018-09-30 03:30,50.6304516666667,-96.9807766666667,4.1,5.3,223,991.38,5.7,52,9.36,0.0,1018.64,210.5
2018-09-30 03:40,50.6304483333333,-96.9807783333333,4.3,6.0,218,991.47,5.7,53,9.38,0.0,1018.72,210.5
2018-09-30 03:50,50.630445,-96.9807783333333,4.9,6.5,222,991.60,5.7,51,9.41,0.0,1018.86,210.5
2018-09-30 04:00,50.6304433333333,-96.9807783333333,3.7,5.9,239,991.69,5.6,51,9.43,0.0,1018.97,216.3
2018-09-30 04:10,50.6304433333333,-96.9807766666667,4.7,6.4,236,991.70,5.6,51,9.44,0.0,1019.01,216.3
2018-09-30 04:20,50.6304433333333,-96.9807783333333,5.0,8.6,239,991.69,5.7,50,9.45,0.0,1019.02,216.3
2018-09-30 04:30,50.6304433333333,-96.9807766666667,7.0,13.1,267,991.78,6.6,45,9.45,0.0,1019.10,216.3
2018-09-30 04:40,50.6304433333333,-96.9807766666667,7.0,17.4,296,991.81,7.1,45,9.45,0.0,1019.12,216.3
2018-09-30 04:50,50.630445,-96.98078,10.7,16.5,331,992.00,5.9,55,9.44,0.0,1019.38,216.3
2018-09-30 05:00,50.6304433333333,-96.98077,9.4,13.7,329,992.18,5.2,60,9.43,0.0,1019.62,259.9
2018-09-30 05:10,50.6304383333333,-96.9807683333333,8.9,14.3,323,992.34,4.9,63,9.44,0.0,1019.79,259.9
2018-09-30 05:20,50.6304366666667,-96.980765,10.9,16.3,325,992.42,4.8,66,9.47,0.0,1019.88,259.9
2018-09-30 05:30,50.630415,-96.9807683333333,12.6,20.4,324,992.42,4.5,71,9.47,0.0,1019.90,259.9
2018-09-30 05:40,50.63044,-96.9807716666667,11.8,21.2,320,992.52,4.1,77,9.45,0.0,1020.01,259.9
2018-09-30 05:50,50.630445,-96.9807816666667,13.5,21.4,325,992.64,3.5,82,9.44,0.0,1020.17,259.9
2018-09-30 06:00,50.6304366666667,-96.9807733333333,9.9,15.7,313,993.05,2.9,86,9.41,0.0,1020.63,192.6
2018-09-30 06:10,50.6304333333333,-96.9807733333333,8.3,13.6,313,993.24,2.7,89,9.41,0.0,1020.83,192.6
2018-09-30 06:20,50.63043,-96.980775,9.2,14.1,315,993.36,2.5,92,9.42,0.0,1020.92,192.6
2018-09-30 06:30,50.6304333333333,-96.9807766666667,8.0,12.5,314,993.59,2.4,94,9.44,0.0,1021.13,192.6
2018-09-30 06:40,50.6304333333333,-96.9807783333333,7.9,13.8,315,993.66,2.2,96,9.41,0.0,1021.27,192.6
2018-09-30 06:50,50.6304333333333,-96.9807783333333,7.2,12.4,313,993.72,2.2,97,9.38,0.0,1021.37,192.6
2018-09-30 07:00,50.630435,-96.98078,5.7,9.5,316,993.73,2.1,96,9.32,0.0,1021.39,142.0
2018-09-30 07:10,50.6304333333333,-96.9807966666667,4.8,6.8,313,993.88,2.1,96,9.28,0.0,1021.56,142.0
2018-09-30 07:20,50.630425,-96.980775,4.8,7.6,312,993.89,2.1,96,9.27,0.0,1021.58,142.0
2018-09-30 07:30,50.6304316666667,-96.9807783333333,3.7,5.8,296,994.02,2.1,96,9.28,0.0,1021.74,142.0
2018-09-30 07:40,50.6304333333333,-96.98078,3.3,5.8,278,994.13,1.9,97,9.25,0.0,1021.89,142.0
2018-09-30 07:50,50.6304316666667,-96.98078,3.2,5.0,268,994.21,1.8,99,9.21,0.0,1022.01,142.0
2018-09-30 08:00,50.6304316666667,-96.9807766666667,3.7,6.5,261,994.34,1.7,99,9.21,0.0,1022.16,221.3
2018-09-30 08:10,50.6304316666667,-96.980775,3.8,5.7,258,994.45,1.6,99,9.23,0.0,1022.29,221.3
2018-09-30 08:20,50.63043,-96.980775,4.5,6.9,253,994.55,1.6,98,9.21,0.0,1022.40,221.3
2018-09-30 08:30,50.63043,-96.9807733333333,4.3,7.1,259,994.61,1.5,98,9.22,0.0,1022.47,221.3
2018-09-30 08:40,50.63042,-96.9807866666667,4.8,7.8,264,994.72,1.6,97,9.22,0.0,1022.58,221.3
2018-09-30 08:50,50.630425,-96.980785,5.6,8.5,264,994.83,1.7,94,9.21,0.0,1022.69,221.3
2018-09-30 09:00,50.6304266666667,-96.980785,4.8,8.5,274,994.86,1.8,93,9.21,0.0,1022.72,216.6
2018-09-30 09:10,50.630435,-96.9807883333333,4.2,6.9,277,994.94,1.6,93,9.21,0.0,1022.81,216.6
2018-09-30 09:20,50.6304383333333,-96.98077,5.4,8.8,276,994.98,1.4,93,9.19,0.0,1022.86,216.6
2018-09-30 09:30,50.6304333333333,-96.9807733333333,5.0,8.0,279,994.98,1.2,93,9.16,0.0,1022.88,216.6
2018-09-30 09:40,50.6304316666667,-96.98077,5.2,8.5,284,995.07,1.1,92,9.15,0.0,1022.98,216.6
2018-09-30 09:50,50.63043,-96.98077,4.7,8.1,284,995.14,1.0,92,9.15,0.0,1023.07,216.6
2018-09-30 10:00,50.6304383333333,-96.98077,5.1,8.1,284,995.20,0.9,93,9.15,0.0,1023.14,66.4
2018-09-30 10:10,50.6304366666667,-96.9807716666667,4.7,7.6,275,995.36,0.7,93,9.16,0.0,1023.32,66.4
2018-09-30 10:20,50.63044,-96.9807683333333,4.8,8.0,271,995.48,0.5,93,9.16,0.0,1023.45,66.4
2018-09-30 10:30,50.63044,-96.9807666666667,5.3,8.9,273,995.55,0.4,93,9.16,0.0,1023.53,66.4
2018-09-30 10:40,50.63044,-96.9807683333333,5.5,9.8,278,995.58,0.2,94,9.16,0.0,1023.56,66.4
2018-09-30 10:50,50.6304416666667,-96.9807666666667,5.5,8.5,276,995.75,0.0,94,9.12,0.0,1023.74,66.4
2018-09-30 11:00,50.6304416666667,-96.9807666666667,4.7,7.9,275,996.08,-0.1,95,9.10,0.0,1024.10,41.3
2018-09-30 11:10,50.6304566666667,-96.9807816666667,4.5,7.2,289,996.21,-0.3,96,9.09,0.0,1024.25,41.3
2018-09-30 11:20,50.6304483333333,-96.980765,6.5,11.4,290,996.33,-0.2,94,9.09,0.0,1024.39,41.3
2018-09-30 11:30,50.630445,-96.980765,7.6,12.1,296,996.48,0.1,88,9.06,0.0,1024.53,41.3
2018-09-30 11:40,50.630445,-96.9807633333333,7.5,12.9,298,996.59,0.2,86,9.06,0.0,1024.64,41.3
2018-09-30 11:50,50.630445,-96.980765,8.8,13.0,302,996.64,0.1,85,9.07,0.0,1024.70,41.3
2018-09-30 12:00,50.6304133333333,-96.9807683333333,7.8,12.0,295,996.80,-0.1,86,9.08,0.0,1024.88,124.8
2018-09-30 12:10,50.6304266666667,-96.980775,7.9,12.2,298,996.91,-0.2,85,9.07,0.0,1025.01,124.8
2018-09-30 12:20,50.6304466666667,-96.9807666666667,7.5,13.1,299,997.05,-0.3,84,9.07,0.0,1025.16,124.8
2018-09-30 12:30,50.6304316666667,-96.9807633333333,7.4,11.5,298,997.27,-0.4,84,9.04,0.0,1025.41,124.8
2018-09-30 12:40,50.6304466666667,-96.9807683333333,7.1,11.6,296,997.49,-0.5,82,8.92,0.0,1025.65,124.8
2018-09-30 12:50,50.6304366666667,-96.9807583333333,6.5,12.7,299,997.63,-0.4,81,8.88,0.0,1025.79,124.8
2018-09-30 13:00,50.6304366666667,-96.980765,7.1,12.4,303,997.77,-0.4,80,8.90,0.0,1025.95,360.0
2018-09-30 13:10,50.6304366666667,-96.9807666666667,7.6,12.0,301,997.95,-0.4,79,8.93,0.0,1026.13,360.0
2018-09-30 13:20,50.6304316666667,-96.9807283333333,8.6,12.8,305,997.99,-0.2,77,8.92,0.0,1026.15,360.0
2018-09-30 13:30,50.630435,-96.9807683333333,8.1,12.6,307,998.04,-0.0,76,8.90,0.0,1026.18,360.0
2018-09-30 13:40,50.6304333333333,-96.9807733333333,7.5,11.5,299,998.19,0.0,75,8.92,0.0,1026.34,360.0
2018-09-30 13:50,50.630455,-96.9807666666667,7.8,13.1,306,998.24,0.1,75,8.95,0.0,1026.40,360.0
2018-09-30 14:00,50.6304283333333,-96.9807616666667,8.3,15.1,300,998.39,0.2,74,8.99,0.0,1026.55,156.5
2018-09-30 14:10,50.6304266666667,-96.9807633333333,10.3,15.5,305,998.52,0.3,72,9.00,0.0,1026.68,156.5
2018-09-30 14:20,50.6304283333333,-96.9807616666667,10.0,14.4,304,998.69,0.3,71,8.99,0.0,1026.87,156.5
2018-09-30 14:30,50.6304316666667,-96.9807633333333,9.2,14.4,307,998.80,0.6,70,8.97,0.0,1026.96,156.5
2018-09-30 14:40,50.6304316666667,-96.980765,10.7,18.2,305,998.74,0.7,67,8.98,0.0,1026.89,156.5
2018-09-30 14:50,50.6304466666667,-96.980775,11.3,17.4,314,998.83,0.9,64,8.97,0.0,1026.98,156.5
2018-09-30 15:00,50.63044,-96.9807883333333,12.5,19.6,309,998.95,1.0,61,8.91,0.0,1027.09,326.3
2018-09-30 15:10,50.6304333333333,-96.9807783333333,10.9,17.8,312,999.15,1.3,59,8.88,0.0,1027.27,326.3
2018-09-30 15:20,50.6304383333333,-96.9807783333333,13.5,20.8,321,999.11,1.4,57,8.88,0.0,1027.22,326.3
2018-09-30 15:30,50.63044,-96.9807783333333,12.7,18.0,310,999.35,1.4,55,8.92,0.0,1027.46,326.3
2018-09-30 15:40,50.63044,-96.9807783333333,13.5,19.0,316,999.43,1.5,53,8.89,0.0,1027.54,326.3
2018-09-30 15:50,50.63044,-96.9807766666667,11.8,19.2,314,999.63,1.7,53,8.87,0.0,1027.72,326.3
2018-09-30 16:00,50.63044,-96.9807766666667,13.4,20.9,312,999.60,1.7,51,8.87,0.0,1027.69,347.4
2018-09-30 16:10,50.63044,-96.980775,11.1,17.8,302,999.78,1.8,51,8.83,0.0,1027.87,347.4
2018-09-30 16:20,50.63044,-96.9807716666667,11.2,17.9,298,999.88,1.9,50,8.76,0.0,1027.95,347.4
2018-09-30 16:30,50.6304416666667,-96.9807716666667,11.2,18.7,303,999.95,2.0,51,8.77,0.0,1028.01,347.4
2018-09-30 16:40,50.6304616666667,-96.9807866666667,10.4,17.4,302,1000.10,2.0,50,8.77,0.0,1028.16,347.4
2018-09-30 16:50,50.6304566666667,-96.9807766666667,9.9,16.3,289,1000.16,2.3,51,8.78,0.0,1028.20,347.4
2018-09-30 17:00,50.6304516666667,-96.98077,10.9,16.3,308,999.97,2.4,47,8.77,0.0,1027.98,360.0
2018-09-30 17:10,50.6304433333333,-96.9807583333333,11.1,16.5,320,999.93,2.5,48,8.82,0.0,1027.93,360.0
2018-09-30 17:20,50.63046,-96.9807666666667,10.2,16.6,308,1000.02,2.6,46,8.83,0.0,1028.02,360.0
2018-09-30 17:30,50.6304633333333,-96.980765,9.2,14.5,298,1000.17,3.0,45,8.81,0.0,1028.15,360.0
2018-09-30 17:40,50.6304583333333,-96.98077,8.0,14.3,294,1000.29,3.2,44,8.84,0.0,1028.24,360.0
2018-09-30 17:50,50.630455,-96.980765,10.5,19.9,312,1000.20,3.3,47,8.86,0.0,1028.15,360.0
2018-09-30 18:00,50.6304566666667,-96.98076,9.0,15.0,308,1000.40,2.8,45,8.81,0.0,1028.38,65.1
2018-09-30 18:10,50.6304583333333,-96.9807616666667,9.6,17.1,295,1000.31,3.3,44,8.79,0.0,1028.26,65.1
2018-09-30 18:20,50.630445,-96.9807666666667,10.5,16.8,322,1000.24,3.3,44,8.80,0.0,1028.18,65.1
2018-09-30 18:30,50.6304533333333,-96.980775,10.2,18.0,318,1000.05,3.5,45,8.82,0.0,1027.97,65.1
2018-09-30 18:40,50.6304533333333,-96.9807783333333,8.6,13.8,314,1000.14,3.5,42,8.83,0.0,1028.04,65.1
2018-09-30 18:50,50.6304516666667,-96.980775,7.3,13.1,312,1000.19,3.8,41,8.86,0.0,1028.09,65.1
2018-09-30 19:00,50.6304516666667,-96.9807733333333,7.4,14.7,323,1000.30,4.0,39,8.89,0.0,1028.18,360.0
2018-09-30 19:10,50.6304516666667,-96.9807733333333,8.9,15.8,307,1000.24,3.9,39,8.90,0.0,1028.11,360.0
2018-09-30 19:20,50.630455,-96.9807866666667,8.3,14.9,309,1000.19,4.0,39,8.92,0.0,1028.04,360.0
2018-09-30 19:30,50.6304166666667,-96.9807433333333,11.6,18.1,326,999.97,4.1,37,8.92,0.0,1027.80,360.0
2018-09-30 19:40,50.6304533333333,-96.9807683333333,6.8,12.1,347,1000.14,4.3,38,8.93,0.0,1027.96,360.0
2018-09-30 19:50,50.630455,-96.9807683333333,6.9,16.5,320,1000.06,4.5,37,8.94,0.0,1027.89,360.0
2018-09-30 20:00,50.6304533333333,-96.9807616666667,9.7,14.2,343,1000.12,4.7,39,8.92,0.0,1027.92,90.0
2018-09-30 20:10,50.6304533333333,-96.9807616666667,7.3,13.3,316,1000.14,4.6,35,8.89,0.0,1027.94,90.0
2018-09-30 20:20,50.630455,-96.9807666666667,6.9,11.7,297,1000.16,4.6,35,8.88,0.0,1027.96,90.0
2018-09-30 20:30,50.6304316666667,-96.9807866666667,5.7,11.0,356,1000.19,4.9,39,8.93,0.0,1027.96,90.0
2018-09-30 20:40,50.6304466666667,-96.98075,8.3,13.9,344,1000.14,4.8,40,8.99,0.0,1027.91,90.0
2018-09-30 20:50,50.630455,-96.9807666666667,7.1,10.7,291,1000.35,4.6,35,9.03,0.0,1028.13,90.0
2018-09-30 21:00,50.63045,-96.9807516666667,6.0,10.9,270,1000.58,4.8,35,9.06,0.0,1028.35,90.0
2018-09-30 21:10,50.6304516666667,-96.9807566666667,3.5,8.2,285,1000.55,5.1,35,9.08,0.0,1028.31,90.0
2018-09-30 21:20,50.63045,-96.980745,4.4,11.0,3,1000.43,5.0,39,9.08,0.0,1028.18,90.0
2018-09-30 21:30,50.63045,-96.9807566666667,8.1,10.7,333,1000.33,4.6,39,9.10,0.0,1028.09,90.0
2018-09-30 21:40,50.63045,-96.9807616666667,4.4,9.7,355,1000.34,5.1,37,9.12,0.0,1028.07,90.0
2018-09-30 21:50,50.63045,-96.9807633333333,3.9,7.1,289,1000.33,5.3,33,9.13,0.0,1028.03,90.0
2018-09-30 22:00,50.63045,-96.980765,2.6,8.1,15,1000.29,5.8,35,9.15,0.0,1027.97,90.0
2018-09-30 22:10,50.6304583333333,-96.9807883333333,4.6,10.0,23,1000.22,5.9,38,9.16,0.0,1027.89,90.0
2018-09-30 22:20,50.6304566666667,-96.9807683333333,7.5,10.8,10,1000.15,5.5,40,9.15,0.0,1027.83,90.0
2018-09-30 22:30,50.6304516666667,-96.9807616666667,6.1,8.6,324,1000.22,5.0,38,9.14,0.0,1027.93,90.0
2018-09-30 22:40,50.6304533333333,-96.9807783333333,4.5,8.1,295,1000.30,5.0,36,9.15,0.0,1028.02,90.0
2018-09-30 22:50,50.6304566666667,-96.9807683333333,5.8,9.3,315,1000.25,5.2,35,9.15,0.0,1027.95,90.0
2018-09-30 23:00,50.6304566666667,-96.98077,5.0,6.7,297,1000.33,4.4,36,9.14,0.0,1028.05,270.0
2018-09-30 23:10,50.6304433333333,-96.98077,3.6,5.3,301,1000.34,4.2,38,9.13,0.0,1028.08,270.0
2018-09-30 23:20,50.63045,-96.98077,2.8,3.8,298,1000.37,4.7,36,9.13,0.0,1028.11,270.0
2018-09-30 23:30,50.63045,-96.980765,3.1,4.5,300,1000.32,4.8,36,9.11,0.0,1028.03,270.0
2018-09-30 23:40,50.6304416666667,-96.9807766666667,2.8,4.2,317,1000.26,4.9,36,9.11,0.0,1027.95,270.0
2018-09-30 23:50,50.63045,-96.9807783333333,2.7,4.3,317,1000.21,4.4,37,9.11,0.0,1027.89,270.0
